ENT666 LKKV-LZPP

Flight info

Callsign ENT666
Flight time 0h 53m
Altitude 24000
Route BALTU DCT EROKA DCT VLM/N0284F090 L726 BNO M748 BERVA
Aircraft ES30/M-SDFGIRWYH/LB1

Departure

Time 2026-04-15 22:13
Airport Karlovy Vary Airport (LKKV)

Arrival

Time 2026-04-15 23:06
Airport Piešťany Airport (LZPP)
Time Latitude Longitude Altitude Speed Heading
2026-04-15 21:52 50.20202 12.91068 1992 ft 0 kts 203°
2026-04-15 22:04 50.20223 12.91080 1992 ft 4 kts 191°
2026-04-15 22:05 50.20248 12.91080 1992 ft 4 kts 154°
2026-04-15 22:05 50.20262 12.91060 1992 ft 1 kts 107°
2026-04-15 22:05 50.20263 12.91053 1992 ft 0 kts 107°
2026-04-15 22:08 50.20256 12.91093 1992 ft 10 kts 107°
2026-04-15 22:08 50.20271 12.91193 1992 ft 10 kts 28°
2026-04-15 22:08 50.20308 12.91147 1993 ft 7 kts 295°
2026-04-15 22:08 50.20338 12.91036 1994 ft 15 kts 292°
2026-04-15 22:09 50.20381 12.90884 1993 ft 15 kts 292°
2026-04-15 22:09 50.20421 12.90739 1992 ft 14 kts 293°
2026-04-15 22:09 50.20461 12.90593 1990 ft 15 kts 293°
2026-04-15 22:09 50.20497 12.90459 1992 ft 12 kts 293°
2026-04-15 22:10 50.20528 12.90350 1992 ft 10 kts 296°
2026-04-15 22:10 50.20581 12.90352 1991 ft 9 kts 57°
2026-04-15 22:10 50.20598 12.90443 1991 ft 7 kts 110°
2026-04-15 22:10 50.20597 12.90445 1991 ft 0 kts 114°
2026-04-15 22:12 50.20571 12.90539 1991 ft 44 kts 112°
2026-04-15 22:12 50.20330 12.91425 1996 ft 127 kts 113°
2026-04-15 22:12 50.19933 12.92929 2159 ft 162 kts 111°
2026-04-15 22:13 50.19507 12.94531 2703 ft 151 kts 117°
2026-04-15 22:13 50.19092 12.95946 3336 ft 139 kts 115°
2026-04-15 22:13 50.18684 12.97438 3470 ft 161 kts 115°
2026-04-15 22:13 50.18224 12.99096 3580 ft 169 kts 115°
2026-04-15 22:14 50.17763 13.00780 3790 ft 169 kts 115°
2026-04-15 22:14 50.17300 13.02471 3964 ft 171 kts 115°
2026-04-15 22:14 50.16820 13.04208 4579 ft 174 kts 114°
2026-04-15 22:14 50.16348 13.05938 5460 ft 174 kts 115°
2026-04-15 22:15 50.15862 13.07688 6245 ft 178 kts 114°
2026-04-15 22:15 50.15370 13.09476 7002 ft 181 kts 115°
2026-04-15 22:15 50.14866 13.11296 7744 ft 184 kts 114°
2026-04-15 22:15 50.14356 13.13146 8482 ft 187 kts 115°
2026-04-15 22:16 50.13834 13.15031 9219 ft 191 kts 114°
2026-04-15 22:16 50.13307 13.16947 9957 ft 194 kts 115°
2026-04-15 22:16 50.12765 13.18891 10613 ft 197 kts 115°
2026-04-15 22:16 50.12224 13.20870 11281 ft 198 kts 114°
2026-04-15 22:17 50.11674 13.22842 11950 ft 200 kts 115°
2026-04-15 22:17 50.11110 13.24864 12456 ft 211 kts 114°
2026-04-15 22:17 50.10517 13.26999 13032 ft 215 kts 114°
2026-04-15 22:17 50.09920 13.29155 13644 ft 218 kts 114°
2026-04-15 22:18 50.09313 13.31335 14228 ft 221 kts 113°
2026-04-15 22:18 50.08975 13.33667 14750 ft 223 kts 89°
2026-04-15 22:18 50.09045 13.36094 15260 ft 226 kts 86°
2026-04-15 22:18 50.09076 13.38556 15753 ft 229 kts 88°
2026-04-15 22:19 50.09124 13.41044 16256 ft 232 kts 86°
2026-04-15 22:19 50.09185 13.43558 16848 ft 234 kts 86°
2026-04-15 22:19 50.09240 13.46107 17398 ft 237 kts 87°
2026-04-15 22:19 50.09294 13.48683 17942 ft 240 kts 86°
2026-04-15 22:20 50.09349 13.51262 18573 ft 242 kts 86°
2026-04-15 22:20 50.09406 13.53900 19122 ft 245 kts 86°
2026-04-15 22:20 50.09459 13.56566 19653 ft 248 kts 86°
2026-04-15 22:20 50.09512 13.59256 20187 ft 250 kts 86°
2026-04-15 22:21 50.09568 13.61973 20699 ft 252 kts 86°
2026-04-15 22:21 50.09621 13.64716 21204 ft 255 kts 86°
2026-04-15 22:21 50.09672 13.67485 21700 ft 257 kts 89°
2026-04-15 22:21 50.09364 13.70233 22182 ft 260 kts 110°
2026-04-15 22:22 50.08652 13.72841 22657 ft 263 kts 114°
2026-04-15 22:22 50.07932 13.75463 23102 ft 265 kts 113°
2026-04-15 22:22 50.07198 13.78119 23536 ft 268 kts 114°
2026-04-15 22:22 50.06450 13.80783 23938 ft 269 kts 114°
2026-04-15 22:23 50.05705 13.83457 24211 ft 271 kts 114°
2026-04-15 22:23 50.04941 13.86194 24208 ft 279 kts 114°
2026-04-15 22:23 50.04158 13.88994 24206 ft 285 kts 114°
2026-04-15 22:23 50.03362 13.91842 24221 ft 289 kts 114°
2026-04-15 22:24 50.02553 13.94731 24220 ft 293 kts 114°
2026-04-15 22:24 50.01735 13.97644 24224 ft 295 kts 114°
2026-04-15 22:24 50.00911 14.00579 24218 ft 297 kts 114°
2026-04-15 22:24 50.00039 14.03495 24219 ft 298 kts 117°
2026-04-15 22:25 49.99129 14.06384 24223 ft 298 kts 116°
2026-04-15 22:25 49.98243 14.09298 24219 ft 298 kts 115°
2026-04-15 22:25 49.97365 14.12222 24222 ft 299 kts 116°
2026-04-15 22:25 49.96477 14.15138 24214 ft 299 kts 116°
2026-04-15 22:26 49.95584 14.18059 24217 ft 299 kts 116°
2026-04-15 22:26 49.94695 14.20975 24219 ft 299 kts 116°
2026-04-15 22:26 49.93804 14.23896 24218 ft 300 kts 116°
2026-04-15 22:26 49.92909 14.26818 24215 ft 300 kts 116°
2026-04-15 22:27 49.92014 14.29749 24216 ft 300 kts 116°
2026-04-15 22:27 49.91115 14.32678 24216 ft 301 kts 116°
2026-04-15 22:27 49.90215 14.35612 24216 ft 301 kts 116°
2026-04-15 22:27 49.89319 14.38533 24216 ft 301 kts 116°
2026-04-15 22:28 49.88417 14.41459 24215 ft 301 kts 116°
2026-04-15 22:28 49.87517 14.44388 24215 ft 301 kts 116°
2026-04-15 22:28 49.86614 14.47312 24214 ft 301 kts 116°
2026-04-15 22:28 49.85709 14.50245 24215 ft 301 kts 116°
2026-04-15 22:29 49.84806 14.53169 24215 ft 301 kts 116°
2026-04-15 22:29 49.83899 14.56099 24215 ft 301 kts 116°
2026-04-15 22:29 49.82994 14.59020 24215 ft 301 kts 116°
2026-04-15 22:29 49.82086 14.61946 24216 ft 301 kts 116°
2026-04-15 22:30 49.81179 14.64870 24215 ft 302 kts 116°
2026-04-15 22:30 49.80268 14.67799 24215 ft 302 kts 116°
2026-04-15 22:30 49.79357 14.70726 24215 ft 302 kts 116°
2026-04-15 22:30 49.78446 14.73652 24216 ft 302 kts 116°
2026-04-15 22:31 49.77531 14.76581 24215 ft 302 kts 116°
2026-04-15 22:31 49.76630 14.79471 24215 ft 302 kts 116°
2026-04-15 22:31 49.75701 14.82435 24213 ft 302 kts 116°
2026-04-15 22:31 49.74799 14.85323 24215 ft 302 kts 116°
2026-04-15 22:32 49.73882 14.88245 24215 ft 302 kts 116°
2026-04-15 22:32 49.72965 14.91168 24214 ft 302 kts 116°
2026-04-15 22:32 49.72047 14.94089 24216 ft 302 kts 116°
2026-04-15 22:32 49.71127 14.97014 24216 ft 303 kts 116°
2026-04-15 22:33 49.70207 14.99934 24214 ft 302 kts 116°
2026-04-15 22:33 49.69285 15.02856 24214 ft 302 kts 116°
2026-04-15 22:33 49.68364 15.05777 24214 ft 303 kts 116°
2026-04-15 22:33 49.67440 15.08701 24213 ft 303 kts 116°
2026-04-15 22:34 49.66515 15.11625 24217 ft 303 kts 116°
2026-04-15 22:34 49.65591 15.14541 24217 ft 303 kts 116°
2026-04-15 22:34 49.64665 15.17461 24205 ft 303 kts 116°
2026-04-15 22:34 49.63738 15.20375 24207 ft 302 kts 116°
2026-04-15 22:35 49.62817 15.23281 24207 ft 301 kts 116°
2026-04-15 22:35 49.61894 15.26180 24207 ft 301 kts 116°
2026-04-15 22:35 49.60970 15.29075 24204 ft 301 kts 116°
2026-04-15 22:35 49.60047 15.31972 24202 ft 301 kts 116°
2026-04-15 22:36 49.59123 15.34862 24200 ft 301 kts 116°
2026-04-15 22:36 49.58200 15.37750 24199 ft 300 kts 116°
2026-04-15 22:36 49.57275 15.40637 24200 ft 300 kts 116°
2026-04-15 22:36 49.56351 15.43525 24205 ft 300 kts 116°
2026-04-15 22:37 49.55426 15.46406 24205 ft 300 kts 116°
2026-04-15 22:37 49.54499 15.49291 24205 ft 300 kts 116°
2026-04-15 22:37 49.53573 15.52171 24205 ft 300 kts 116°
2026-04-15 22:37 49.52646 15.55050 24206 ft 300 kts 116°
2026-04-15 22:38 49.51716 15.57934 24208 ft 300 kts 116°
2026-04-15 22:38 49.50788 15.60812 24208 ft 300 kts 116°
2026-04-15 22:38 49.49857 15.63693 24207 ft 300 kts 116°
2026-04-15 22:38 49.48938 15.66530 24208 ft 300 kts 116°
2026-04-15 22:39 49.47997 15.69444 24208 ft 300 kts 116°
2026-04-15 22:39 49.47064 15.72314 24207 ft 300 kts 116°
2026-04-15 22:39 49.46145 15.75149 24206 ft 300 kts 116°
2026-04-15 22:39 49.45211 15.78020 24207 ft 300 kts 116°
2026-04-15 22:40 49.44266 15.80930 24204 ft 300 kts 116°
2026-04-15 22:40 49.43331 15.83798 24210 ft 300 kts 116°
2026-04-15 22:40 49.42396 15.86661 24210 ft 300 kts 116°
2026-04-15 22:41 49.40542 15.92342 24206 ft 300 kts 116°
2026-04-15 22:41 49.39607 15.95202 24206 ft 299 kts 116°
2026-04-15 22:41 49.38671 15.98056 24205 ft 299 kts 116°
2026-04-15 22:41 49.37737 16.00907 24206 ft 299 kts 116°
2026-04-15 22:42 49.36801 16.03759 24206 ft 299 kts 116°
2026-04-15 22:42 49.35862 16.06614 24205 ft 300 kts 116°
2026-04-15 22:42 49.34925 16.09463 24206 ft 300 kts 116°
2026-04-15 22:42 49.33986 16.12314 24207 ft 299 kts 116°
2026-04-15 22:43 49.33046 16.15165 24209 ft 299 kts 116°
2026-04-15 22:43 49.32105 16.18015 24210 ft 299 kts 116°
2026-04-15 22:43 49.31165 16.20858 24209 ft 299 kts 116°
2026-04-15 22:43 49.30222 16.23701 24210 ft 299 kts 116°
2026-04-15 22:44 49.29284 16.26542 24211 ft 299 kts 116°
2026-04-15 22:44 49.28343 16.29378 24210 ft 299 kts 116°
2026-04-15 22:44 49.27402 16.32213 24210 ft 298 kts 116°
2026-04-15 22:44 49.26460 16.35044 24210 ft 298 kts 116°
2026-04-15 22:45 49.25519 16.37876 24213 ft 299 kts 116°
2026-04-15 22:45 49.24576 16.40707 24203 ft 298 kts 115°
2026-04-15 22:45 49.23635 16.43528 24209 ft 297 kts 116°
2026-04-15 22:45 49.22696 16.46339 24207 ft 297 kts 116°
2026-04-15 22:46 49.21758 16.49149 24213 ft 296 kts 116°
2026-04-15 22:46 49.20820 16.51947 24211 ft 296 kts 116°
2026-04-15 22:46 49.19883 16.54748 24210 ft 296 kts 116°
2026-04-15 22:46 49.18949 16.57538 24213 ft 295 kts 116°
2026-04-15 22:47 49.18011 16.60323 24215 ft 292 kts 115°
2026-04-15 22:47 49.17093 16.63054 24208 ft 286 kts 115°
2026-04-15 22:47 49.16188 16.65747 24039 ft 286 kts 115°
2026-04-15 22:47 49.15262 16.68475 23664 ft 292 kts 119°
2026-04-15 22:48 49.13987 16.70920 23254 ft 297 kts 134°
2026-04-15 22:48 49.12540 16.73193 22848 ft 300 kts 133°
2026-04-15 22:48 49.11118 16.75532 22433 ft 302 kts 133°
2026-04-15 22:48 49.09677 16.77870 22036 ft 302 kts 134°
2026-04-15 22:49 49.08225 16.80192 21623 ft 302 kts 134°
2026-04-15 22:49 49.06778 16.82515 21232 ft 302 kts 134°
2026-04-15 22:49 49.05333 16.84839 20827 ft 302 kts 134°
2026-04-15 22:49 49.03891 16.87157 20435 ft 301 kts 134°
2026-04-15 22:50 49.02448 16.89469 20027 ft 301 kts 135°
2026-04-15 22:50 49.01021 16.91755 19634 ft 293 kts 135°
2026-04-15 22:50 48.99616 16.94008 19252 ft 295 kts 135°
2026-04-15 22:50 48.98198 16.96273 18867 ft 296 kts 135°
2026-04-15 22:51 48.96773 16.98552 18462 ft 297 kts 135°
2026-04-15 22:51 48.95348 17.00825 18034 ft 297 kts 135°
2026-04-15 22:51 48.93927 17.03094 17640 ft 295 kts 135°
2026-04-15 22:51 48.92515 17.05346 17257 ft 293 kts 135°
2026-04-15 22:52 48.91111 17.07580 16885 ft 291 kts 135°
2026-04-15 22:52 48.89721 17.09794 16521 ft 288 kts 135°
2026-04-15 22:52 48.88338 17.11991 16167 ft 286 kts 135°
2026-04-15 22:52 48.86965 17.14172 15818 ft 285 kts 135°
2026-04-15 22:53 48.85619 17.16309 15479 ft 283 kts 135°
2026-04-15 22:53 48.84258 17.18468 15141 ft 282 kts 135°
2026-04-15 22:53 48.82912 17.20624 14808 ft 281 kts 135°
2026-04-15 22:53 48.81564 17.22771 14488 ft 280 kts 135°
2026-04-15 22:54 48.80201 17.24938 14177 ft 280 kts 135°
2026-04-15 22:54 48.78878 17.27041 13850 ft 279 kts 135°
2026-04-15 22:54 48.77542 17.29164 13505 ft 278 kts 135°
2026-04-15 22:54 48.76208 17.31283 13169 ft 277 kts 135°
2026-04-15 22:55 48.74879 17.33388 12839 ft 276 kts 135°
2026-04-15 22:55 48.73558 17.35484 12501 ft 274 kts 135°
2026-04-15 22:55 48.72243 17.37567 12184 ft 273 kts 135°
2026-04-15 22:55 48.70936 17.39632 11872 ft 270 kts 136°
2026-04-15 22:56 48.69642 17.41682 11558 ft 269 kts 136°
2026-04-15 22:56 48.68351 17.43721 11257 ft 268 kts 136°
2026-04-15 22:56 48.67066 17.45750 10962 ft 266 kts 136°
2026-04-15 22:56 48.65786 17.47767 10671 ft 265 kts 136°
2026-04-15 22:57 48.64514 17.49776 10376 ft 264 kts 136°
2026-04-15 22:57 48.63206 17.51711 10081 ft 262 kts 144°
2026-04-15 22:57 48.62187 17.52669 9857 ft 260 kts 155°
2026-04-15 22:57 48.60495 17.53563 9542 ft 257 kts 171°
2026-04-15 22:58 48.58729 17.53733 9221 ft 254 kts 186°
2026-04-15 22:58 48.56976 17.53481 8914 ft 253 kts 187°
2026-04-15 22:58 48.55231 17.53269 8618 ft 250 kts 186°
2026-04-15 22:58 48.53475 17.53046 8326 ft 255 kts 187°
2026-04-15 22:59 48.51723 17.52813 8049 ft 250 kts 186°
2026-04-15 22:59 48.49999 17.52592 7762 ft 247 kts 186°
2026-04-15 22:59 48.48287 17.52443 7465 ft 247 kts 179°
2026-04-15 22:59 48.46611 17.52990 7162 ft 248 kts 161°
2026-04-15 23:00 48.45098 17.54236 6864 ft 249 kts 144°
2026-04-15 23:00 48.43893 17.56083 6569 ft 247 kts 127°
2026-04-15 23:00 48.43105 17.58359 6257 ft 245 kts 108°
2026-04-15 23:00 48.43130 17.60886 5892 ft 246 kts 70°
2026-04-15 23:01 48.43885 17.63163 5613 ft 239 kts 60°
2026-04-15 23:01 48.44709 17.65303 5312 ft 232 kts 60°
2026-04-15 23:01 48.45471 17.67357 4990 ft 220 kts 61°
2026-04-15 23:01 48.46188 17.69356 4638 ft 214 kts 62°
2026-04-15 23:02 48.46895 17.71312 4286 ft 211 kts 61°
2026-04-15 23:02 48.47598 17.73232 3941 ft 208 kts 61°
2026-04-15 23:02 48.48291 17.75137 3608 ft 207 kts 61°
2026-04-15 23:02 48.49055 17.76960 3256 ft 205 kts 47°
2026-04-15 23:03 48.50191 17.78170 2991 ft 199 kts 20°
2026-04-15 23:03 48.51511 17.78700 2753 ft 195 kts 13°
2026-04-15 23:03 48.52811 17.79225 2487 ft 192 kts 14°
2026-04-15 23:03 48.54095 17.79700 2241 ft 185 kts 12°
2026-04-15 23:04 48.55298 17.80133 1985 ft 165 kts 13°
2026-04-15 23:04 48.56313 17.80524 1979 ft 139 kts 14°
2026-04-15 23:04 48.57200 17.80883 1797 ft 131 kts 17°
2026-04-15 23:04 48.58069 17.81252 1499 ft 128 kts 11°
2026-04-15 23:05 48.58923 17.81514 1201 ft 123 kts 15°
2026-04-15 23:05 48.59741 17.81838 947 ft 120 kts 15°
2026-04-15 23:05 48.60523 17.82140 775 ft 112 kts 14°
2026-04-15 23:05 48.61274 17.82399 633 ft 109 kts 16°
2026-04-15 23:06 48.61988 17.82661 549 ft 100 kts 15°
2026-04-15 23:06 48.62331 17.82791 547 ft 10 kts 15°
2026-04-15 23:06 48.62340 17.82837 547 ft 9 kts 149°
2026-04-15 23:06 48.62212 17.82920 546 ft 27 kts 157°
2026-04-15 23:07 48.62047 17.83023 545 ft 24 kts 157°
2026-04-15 23:07 48.61898 17.83085 545 ft 21 kts 187°
2026-04-15 23:07 48.61765 17.83032 544 ft 19 kts 194°
2026-04-15 23:07 48.61644 17.82987 544 ft 17 kts 194°
2026-04-15 23:08 48.61567 17.82999 544 ft 8 kts 97°
2026-04-15 23:08 48.61564 17.83020 544 ft 0 kts 101°
2026-04-15 23:12 48.59467 17.81741 1021 ft 24 kts 15°
2026-04-15 23:12 48.59612 17.81793 982 ft 94 kts 14°